IRIDIUM 33 DEB

Satellite information

Favourite Embed

Satellite Type and Status

DEBRISIN ORBIT

Key statistics

Satellite IRIDIUM 33 DEB at a glance.

Uptime

10318

Days in orbit

Revolutions

≈ 14.6

Per day

Orbit

LEO

Low Earth Orbit

Inclination

86.3

Latest

Satellite identification and parameters

Extended collection of information and parameters for IRIDIUM 33 DEB.

Object identification

Identified? True

Debris? True

Object name: IRIDIUM 33 DEB

International designator: 1997-051FU

Object number (NORAD): 34376

Object ID (CCSDS): 34376

Country: UNITED STATES OF AMERICA (US)

Current information (Y/N): Y

RCS size: SMALL

Orbital parameters

Period: 98.456 minutes

Inclination: 86.2989 deg

SMA: 7062.984 km

Apoapsis: 704.073 km

Periapsis: 665.625 km

RAAN: 6.321 deg

Eccentricy: 0.00272182

Argument of periapsis: 165.0092 deg

Mean anomaly: 195.1933 deg

Mean motion: 14.62582751 rev/day

Mean motion (dot): 0.00012374 rev/day2

B* drag term: 0.0024180552 1/REarth

Two-line elements (TLE)

Creation date: Dec. 13, 2025, 5:47 p.m.

Reference frame: TEME

Reference center: EARTH

Epoch: Dec. 13, 2025, 5:26 a.m. UTC

TLE line 0: 0 IRIDIUM 33 DEB

TLE line 1: 1 34376U 97051FU 25347.22699583 .00012374 00000-0 24181-2 0 9995

TLE line 2: 2 34376 86.2989 6.3210 0027218 165.0092 195.1933 14.62582751880145

Live tracking on map

Real-time ground track for satellite IRIDIUM 33 DEB.

In-orbit conjunctions

A list of the most updated potential collisions computed for object IRIDIUM 33 DEB.

Target Orbit TCA Probability of collision Miss distance Type
SL-16 DEB LEO 2024-11-13 20:45:17 0.0002230114 817.0 (m) DEBRIS
FENGYUN 1C DEB SSO 2024-11-10 18:08:58 0.000506014 236.0 (m) DEBRIS
ATLAS AGENA D R/B LEO 2024-10-03 00:30:32 0.0002249027 908.0 (m) ROCKET BODY

Associated space launch

Iridium provides global mobile telecommunications services using a constellation of 66 low earth orbit satellites in a 86.4° inclined orbit. Although 77 satellites were originally envisioned for the system and spawned the name based on the 77th element in the periodic table, the system has been scaled back. Motorola's Satellite Communications Group designed and manufactured the Iridium satellites with Lockheed Martin providing the LM-700A spacecraft buses.

IRIDIUM 33 DEB was lifted into orbit during the mission ‘Proton-K/17S40 | Iridium 27 to 33’, on board a Proton-K/17S40 space rocket.

The launch took place on Sept. 14, 1997, 1:36 a.m. from 81/23 (81L).

For more information about the launch, click the button.

Launch to space Proton-K/17S40 | Iridium 27 to 33
Proton-K/17S40 | Iridium 27 to 33

Agency: N/A

Status: Launch Successful

Launch date: Sept. 14, 1997, 1:36 a.m. UTC

Rocket: Proton-K/17S40

Launch pad: 81/23 (81L)

Location: Baikonur Cosmodrome, Republic of Kazakhstan

...

Latest news about this satellite

There are no fresh news available about this satellite. Check back as we update our databases every day.


Newsletter sign-up

Weekly statistics, charts and insights to help you stay on top of the space industry.